IQUEBE275 Weather Reports


Display with metric or nautical units.
time (UTC)temp
F
wind
direction
speed
MPH
gust
MPH
rain 1hr
in
rain 24hr
in
rain mn
in
humidity
%
barometer
mb
20260507033046 40 325 1.0 0.0 0.00 0.00 0.32 37 1005.5
20260507032605 40 322 0.0 0.0 0.00 0.00 0.32 37 1005.6
20260507032005 40 322 1.0 0.0 0.00 0.00 0.32 37 1005.5
20260507031555 40 317 1.0 0.0 0.00 0.00 0.32 37 1005.4
20260507030546 40 327 0.0 0.0 0.00 0.00 0.32 38 1005.6
20260507030106 40 327 0.0 0.0 0.00 0.00 0.32 38 1005.6
20260507025504 40 327 0.0 0.0 0.00 0.00 0.32 38 1005.6
20260507025051 40 328 1.0 0.0 0.00 0.00 0.32 38 1005.6
20260507024609 40 328 1.0 0.0 0.00 0.00 0.32 38 1005.6
20260507024008 40 319 1.0 0.0 0.00 0.00 0.32 38 1005.6
20260507023557 40 315 0.0 0.0 0.00 0.00 0.32 38 1005.6
20260507022513 40 308 0.0 0.0 0.00 0.00 0.32 39 1005.8
20260507022059 40 306 0.0 0.0 0.00 0.00 0.32 39 1005.7
20260507021619 40 306 0.0 0.0 0.00 0.00 0.32 39 1005.7
20260507021047 40 306 0.0 0.0 0.00 0.00 0.32 39 1005.6
20260507020009 40 306 0.0 0.0 0.00 0.00 0.32 40 1005.5
20260507015602 40 306 0.0 0.0 0.00 0.00 0.32 40 1005.5
20260507014553 41 306 0.0 0.0 0.00 0.00 0.32 40 1005.4
20260507014109 41 306 0.0 0.0 0.00 0.00 0.32 40 1005.5
20260507013503 41 306 0.0 0.0 0.00 0.00 0.32 40 1005.5
20260507013057 41 306 0.0 0.0 0.00 0.00 0.32 40 1005.6
20260507012043 41 306 0.0 0.0 0.00 0.00 0.32 41 1005.5
20260507011555 41 305 0.0 0.0 0.00 0.00 0.32 41 1005.6
20260507010513 41 304 0.0 0.0 0.00 0.00 0.32 42 1005.8
20260507010104 41 304 0.0 0.0 0.00 0.00 0.32 43 1005.8
20260507005048 41 304 0.0 0.0 0.00 0.00 0.32 45 1005.7
20260507004609 41 304 0.0 0.0 0.00 0.00 0.32 45 1005.7
20260507004007 41 304 0.0 0.0 0.00 0.00 0.32 46 1005.7
20260507003600 41 304 0.0 0.0 0.00 0.00 0.32 46 1005.7
20260507002513 42 304 0.0 0.0 0.00 0.00 0.32 46 1005.7
20260507002057 42 304 0.0 0.0 0.00 0.00 0.32 47 1005.6
20260507001015 43 304 0.0 0.0 0.00 0.00 0.32 47 1005.7
20260507000606 43 304 0.0 0.0 0.00 0.00 0.32 47 1005.7
20260507000003 43 304 0.0 0.0 0.00 0.00 0.32 47 1005.7
20260506235557 43 304 0.0 0.0 0.00 0.00 0.32 48 1005.7
20260506235114 43 304 0.0 0.0 0.00 0.00 0.32 48 1005.7
20260506234548 43 304 0.0 0.0 0.00 0.00 0.32 48 1005.8
20260506234105 44 304 0.0 0.0 0.00 0.00 0.32 48 1005.7
20260506233503 44 304 0.0 0.0 0.00 0.00 0.32 49 1005.7
20260506233108 44 304 0.0 0.0 0.00 0.00 0.32 49 1005.8
20260506232605 44 304 0.0 0.0 0.00 0.00 0.32 49 1005.7
20260506231554 44 304 0.0 0.0 0.00 0.00 0.32 51 1005.4
20260506230507 44 304 0.0 0.0 0.00 0.00 0.32 51 1005.5
20260506230054 44 304 0.0 0.0 0.00 0.00 0.32 51 1005.4
20260506225041 44 304 0.0 0.0 0.00 0.00 0.32 50 1005.6
20260506224601 44 304 0.0 0.0 0.00 0.00 0.32 50 1005.5
20260506223549 44 304 1.0 0.0 0.00 0.00 0.32 49 1005.7
20260506223111 44 304 1.0 0.0 0.00 0.00 0.32 49 1005.8
20260506222513 44 304 1.0 0.0 0.00 0.00 0.32 49 1005.7
20260506222111 44 304 1.0 0.0 0.00 0.00 0.32 49 1005.6
20260506221539 44 304 1.0 0.0 0.00 0.00 0.32 49 1005.6
20260506221101 44 304 1.0 0.0 0.00 0.00 0.32 49 1005.5
20260506220502 44 304 1.0 0.0 0.00 0.00 0.32 49 1005.7
20260506220053 44 304 1.0 0.0 0.00 0.00 0.32 49 1005.8
20260506215614 44 304 0.0 0.0 0.00 0.00 0.32 49 1005.9
20260506215038 44 304 0.0 0.0 0.00 0.00 0.32 49 1005.7
20260506214559 44 304 1.0 0.0 0.00 0.00 0.32 49 1005.8
20260506213537 44 302 0.0 0.0 0.00 0.00 0.32 51 1005.8
20260506213112 44 302 1.0 0.0 0.00 0.00 0.32 51 1005.8
20260506212015 44 301 1.0 0.0 0.00 0.00 0.32 50 1005.8
20260506211604 44 300 0.0 0.0 0.00 0.00 0.32 51 1005.9
20260506211003 44 301 0.0 0.0 0.00 0.00 0.32 51 1005.8
20260506210551 44 300 1.0 0.0 0.00 0.00 0.32 51 1005.7
20260506210111 44 301 1.0 0.0 0.00 0.00 0.32 51 1005.8
20260506205509 44 300 0.0 0.0 0.00 0.00 0.32 51 1005.7
20260506205057 44 300 0.0 0.0 0.00 0.00 0.32 51 1005.7
20260506204018 44 300 1.0 0.0 0.00 0.00 0.32 51 1005.8
20260506203604 44 300 1.0 0.0 0.00 0.00 0.32 51 1006.0
20260506203005 44 300 1.0 0.0 0.00 0.00 0.31 52 1006.1
20260506202555 45 300 1.0 0.0 0.00 0.00 0.31 51 1006.1
20260506202111 45 296 1.0 0.0 0.00 0.00 0.31 51 1006.1
20260506201511 44 296 1.0 0.0 0.00 0.00 0.31 51 1006.1
20260506201052 44 296 1.0 0.0 0.00 0.00 0.31 50 1006.1
20260506200618 44 296 1.0 0.0 0.00 0.00 0.31 51 1006.0
20260506200042 44 284 1.0 0.0 0.00 0.00 0.31 51 1006.0
20260506195605 44 290 1.0 0.0 0.00 0.00 0.31 51 1006.0
20260506194548 44 140 0.0 0.0 0.00 0.00 0.31 50 1006.1
20260506193504 44 140 0.0 0.0 0.00 0.00 0.31 47 1006.1
20260506193054 44 140 0.0 0.0 0.00 0.00 0.31 47 1006.3
20260506192045 44 61 0.0 0.0 0.00 0.00 0.31 44 1006.4
20260506191607 43 61 0.0 0.0 0.00 0.00 0.31 44 1006.2
20260506191003 43 61 0.0 0.0 0.00 0.00 0.31 45 1006.4
20260506190549 43 61 0.0 0.0 0.00 0.00 0.31 45 1006.3
20260506190110 43 61 0.0 0.0 0.00 0.00 0.31 45 1006.3
20260506185508 43 61 0.0 0.0 0.00 0.00 0.31 45 1006.4
20260506185058 43 61 0.0 0.0 0.00 0.00 0.31 45 1006.4
20260506184017 42 61 0.0 0.0 0.00 0.00 0.31 45 1006.5
20260506183607 42 61 0.0 0.0 0.00 0.00 0.31 45 1006.5
20260506182548 42 61 0.0 0.0 0.00 0.00 0.31 45 1006.5
20260506181514 42 61 0.0 0.0 0.00 0.00 0.31 45 1006.6
20260506181058 42 61 0.0 0.0 0.00 0.00 0.31 44 1006.6
20260506180017 42 61 1.0 0.0 0.00 0.00 0.31 44 1006.7
20260506175604 42 21 0.0 0.0 0.00 0.00 0.31 44 1006.8
20260506175004 42 360 0.0 0.0 0.00 0.00 0.30 45 1006.9
20260506174554 42 5 0.0 0.0 0.00 0.00 0.30 45 1007.0
20260506173514 42 5 0.0 0.0 0.00 0.00 0.28 44 1007.0
20260506173113 42 5 0.0 0.0 0.00 0.00 0.28 43 1007.1
20260506172503 42 5 0.0 0.0 0.00 0.00 0.28 43 1007.1
20260506172052 42 360 1.0 0.0 0.00 0.00 0.28 43 1007.1
20260506171615 42 298 0.0 0.0 0.00 0.00 0.28 42 1007.2
20260506171040 42 270 0.0 0.0 0.00 0.00 0.28 42 1007.3
20260506170603 42 259 0.0 0.0 0.00 0.00 0.28 42 1007.3
20260506165553 42 259 1.0 0.0 0.00 0.00 0.28 42 1007.3
20260506165110 42 258 1.0 0.0 0.00 0.00 0.28 42 1007.3
20260506164544 42 252 0.0 0.0 0.00 0.00 0.28 42 1007.4
20260506164100 42 252 0.0 0.0 0.00 0.00 0.28 42 1007.5
20260506163616 42 252 1.0 0.0 0.00 0.00 0.28 42 1007.6
20260506163044 42 252 0.0 0.0 0.00 0.00 0.27 42 1007.6
20260506162559 42 252 0.0 0.0 0.00 0.00 0.26 41 1007.7
20260506161548 42 252 0.0 0.0 0.00 0.00 0.25 41 1007.8
20260506160508 42 252 0.0 0.0 0.00 0.00 0.24 42 1007.8
20260506160108 42 252 0.0 0.0 0.00 0.00 0.24 41 1007.9
20260506155016 42 252 0.0 0.0 0.00 0.00 0.23 41 1007.9
20260506154601 42 252 1.0 0.0 0.00 0.00 0.23 41 1008.0
20260506153546 42 256 1.0 0.0 0.00 0.00 0.20 41 1008.1
20260506152508 42 251 1.0 0.0 0.00 0.00 0.19 42 1008.1
20260506152058 43 251 2.0 0.0 0.00 0.00 0.18 41 1008.1
20260506151053 43 238 2.0 0.0 0.00 0.00 0.17 43 1008.4
20260506150607 43 259 2.0 0.0 0.00 0.00 0.16 43 1008.3
20260506150120 43 277 2.0 0.0 0.00 0.00 0.15 43 1008.2
20260506145548 43 272 2.0 0.0 0.00 0.00 0.14 44 1008.1
20260506145111 43 272 2.0 0.0 0.00 0.00 0.13 45 1008.1
20260506144514 43 276 1.0 0.0 0.00 0.00 0.13 45 1008.0
20260506144056 43 276 1.0 0.0 0.00 0.00 0.13 45 1007.9
20260506143048 43 282 1.0 0.0 0.00 0.00 0.12 46 1007.9
20260506142608 43 294 1.0 0.0 0.00 0.00 0.12 47 1008.0
20260506141547 43 240 0.0 0.0 0.00 0.00 0.11 48 1008.1
20260506141106 43 240 1.0 0.0 0.00 0.00 0.10 48 1008.0
20260506140504 43 273 1.0 0.0 0.00 0.00 0.10 49 1008.0
20260506140052 43 272 1.0 0.0 0.00 0.00 0.09 49 1007.9
20260506135011 43 291 1.0 0.0 0.00 0.00 0.09 50 1007.8
20260506134601 43 306 1.0 0.0 0.00 0.00 0.09 50 1007.8
20260506133558 43 281 2.0 0.0 0.00 0.00 0.08 50 1007.7
20260506133012 43 254 2.0 0.0 0.00 0.00 0.08 50 1007.8
20260506132611 43 285 2.0 0.0 0.00 0.00 0.07 50 1007.8
20260506132024 43 273 1.0 0.0 0.00 0.00 0.07 49 1007.9
20260506131624 43 313 1.0 0.0 0.00 0.00 0.07 49 1007.9
20260506131100 44 317 1.0 0.0 0.00 0.00 0.07 49 1007.9
20260506130514 44 288 1.0 0.0 0.00 0.00 0.06 50 1008.0
20260506130107 44 300 1.0 0.0 0.00 0.00 0.06 50 1007.9
20260506125516 44 277 2.0 0.0 0.00 0.00 0.06 51 1008.0
20260506125115 44 268 2.0 0.0 0.00 0.00 0.05 51 1007.9
20260506124526 44 284 1.0 0.0 0.00 0.00 0.05 52 1007.8
20260506124124 44 277 1.0 0.0 0.00 0.00 0.04 52 1007.8